Regional Weather Roundup
Issued by NWS Glasgow, MT

Home | Current Version | Previous Version | Text Only | Print | Product List | Glossary On
Versions: 1 2 3 4 5 6 7 8 9 10 11 12 13 14 15 16 17 18 19 20 21 22 23 24 25 26 27 28 29 30 31 32 33 34 35 36 37 38 39 40 41 42 43 44 45 46 47 48 49 50
000
ASUS45 KGGW 302015
RWRGGW
HOURLY WEATHER ROUNDUP FOR NORTHEAST MONTANA
NATIONAL WEATHER SERVICE GLASGOW MONTANA
200 PM MDT TUE SEP 30 2014

NOTE: "FAIR" INDICATES FEW OR NO CLOUDS BELOW 12,000 FEET WITH NO
SIGNIFICANT WEATHER AND/OR OBSTRUCTIONS TO VISISBILITY.

NORTHEAST MONTANA


CITY           SKY/WX    TMP DP  RH WIND       PRES   REMARKS
GLASGOW        PTSUNNY   63  50  62 W3        29.56F
PLENTYWOOD       N/A     55  51  86 SE1         N/A
WOLF POINT     CLOUDY    60  52  74 CALM      29.58F
JORDAN           N/A     66  48  52 NW15G21   29.59F
WINNETT          N/A     62  44  51 W14G24      N/A
SIDNEY         CLOUDY    55  54  94 E6        29.57F
GLENDIVE       CLOUDY    57  54  88 NW12      29.56F
MALTA            N/A     69  49  48 W12         N/A
OPHEIM           N/A     55  54  94 CALM      29.43F

FORT PECK REPORTS


CITY           SKY/WX    TMP DP  RH WIND       PRES   REMARKS
FORT PECK        N/A     60  52  74 S3          N/A
THE PINES        N/A     61  50  67 S1          N/A

SOUTHEAST MONTANA


CITY           SKY/WX    TMP DP  RH WIND       PRES   REMARKS
BILLINGS       CLOUDY    61  43  51 NW8       29.69F
MILES CITY     CLOUDY    61  49  64 NW9       29.58F
BAKER          LGT RAIN  55  54  96 NW15      29.53F FOG
LIVINGSTON     LGT RAIN  55  43  63 W22       29.78S

CENTRAL MONTANA


CITY           SKY/WX    TMP DP  RH WIND       PRES   REMARKS
HAVRE          PTSUNNY   69  43  38 W23       29.61S
LEWISTOWN      PTSUNNY   58  46  64 NW8       29.70F
GREAT FALLS    CLOUDY    60  41  49 SW16      29.70F
CUT BANK       LGT RAIN  53  49  86 NW13      29.74S
HELENA         CLOUDY    59  36  42 W15G24    29.79F
BUTTE          CLOUDY    50  37  61 NW17      29.87R
BOZEMAN        CLOUDY    54  44  69 SW7       29.82F

WESTERN MONTANA


CITY           SKY/WX    TMP DP  RH WIND       PRES   REMARKS
MISSOULA       CLOUDY    56  38  50 W18G29    29.91R
KALISPELL      NOT AVBL

NORTH DAKOTA


CITY           SKY/WX    TMP DP  RH WIND       PRES   REMARKS
WILLISTON      CLOUDY    55  52  89 E9        29.57F
DICKINSON      CLOUDY    53  51  93 E14       29.50F
MINOT          LGT RAIN  50  47  89 E12       29.61F
BISMARCK       CLOUDY    54  53  97 E18       29.55F FOG

SOUTHERN SASKATCHEWAN


CITY           SKY/WX    TMP DP  RH WIND       PRES   REMARKS
REGINA         CLOUDY    57  54  88 SE9G17    29.58F
MOOSE JAW      PTSUNNY   61  54  77 S10       29.56F
ESTEVAN        LGT RAIN  50  50 100 SE9       29.62F FOG
SWIFT CURRENT  CLOUDY    61  48  63 NW15G21   29.54R




USA.gov is the U.S. government's official web portal to all federal, state and local government web resources and services.